sat.trackr.live / text

‹ back to catalog

STARLINK-32473

NORAD 62049 · 2024-216T

PAYLOAD ACTIVE UNKNOWN

§ Identity

Operator
Country
US
Launch date
2024-11-21
Launch site
AFETR
Launch vehicle
Mass (kg)
RCS (m²)

Purposes: comms

External: N2YO · Heavens-Above · Gunter

§ Orbital elements

Epoch: 2026-05-24T12:42:56.215584Z

Period
94.27 min
Inclination
43.0000°
Eccentricity
0.0001725
Mean motion
15.27593430 rev/d
Perigee alt
481.8 km
Apogee alt
484.2 km
Semi-major
6,861.1 km
B*
6.8002e-4
RAAN
188.0794°
Arg perigee
264.3510°
Mean anomaly
95.7145°
Rev number
8,431

§ Raw data

STARLINK-324731 62049U 24216T   26144.52981731  .00018505  00000+0  68002-3 0  99962 62049  43.0000 188.0794 0001725 264.3510  95.7145 15.27593430 84319

JSON: /api/v1/satellites/62049 · /tle

For live sub-satellite position, see the globe view (requires WebGL).

§ Visibility from observer

Set your observer location to see the next 7 days of passes ≥ 10°. The values pass through the URL so the page stays shareable.

No JS? Fill the form by hand. The geolocation button needs JavaScript.